This is the latest recevied weather packets stored in our database for station/object KN6ZYR. If no packets are shown the sender has not sent any weather packets the latest 10 day(s).
| Time | Temp. | Humidity | Pressure | Rain* | Wind** | Luminosity | Snow |
|---|---|---|---|---|---|---|---|
| 1777094040 | 13.33° C | 29% | 1013.8 hPa | 0 mm | - | 0 W/m² | - |
| 1777093736 | 11.67° C | 31% | 1013.8 hPa | 0 mm | - | 0 W/m² | - |
| 1777093433 | 12.22° C | 34% | 1013.8 hPa | 0 mm | - | 0 W/m² | - |
| 1777093128 | 12.22° C | 33% | 1013.8 hPa | 0 mm | - | 0 W/m² | - |
| 1777092828 | 12.78° C | 32% | 1014 hPa | 0 mm | - | 0 W/m² | - |
| 1777092523 | 13.33° C | 31% | 1014 hPa | 0 mm | - | 0 W/m² | - |
| 1777092218 | 13.89° C | 30% | 1013.7 hPa | 0 mm | - | 0 W/m² | - |
| 1777091915 | 13.89° C | 29% | 1013.8 hPa | 0 mm | - | 0 W/m² | - |
| 1777091615 | 14.44° C | 29% | 1013.8 hPa | 0 mm | - | 0 W/m² | - |
| 1777091311 | 14.44° C | 29% | 1013.7 hPa | 0 mm | - | 0 W/m² | - |
| 1777091006 | 14.44° C | 29% | 1013.8 hPa | 0 mm | - | 0 W/m² | - |
| 1777090703 | 15° C | 28% | 1013.6 hPa | 0 mm | - | 0 W/m² | - |
| 1777090400 | 15° C | 27% | 1013.6 hPa | 0 mm | - | 0 W/m² | - |
| 1777090096 | 15.56° C | 27% | 1013.4 hPa | 0 mm | - | 0 W/m² | - |
| 1777089791 | 15.56° C | 26% | 1013.3 hPa | 0 mm | - | 0 W/m² | - |
| 1777089487 | 15.56° C | 26% | 1013.2 hPa | 0 mm | - | 0 W/m² | - |
| 1777089186 | 15.56° C | 26% | 1013.3 hPa | 0 mm | - | 0 W/m² | - |
| 1777088881 | 15.56° C | 25% | 1013.2 hPa | 0 mm | - | 0 W/m² | - |
| 1777088578 | 16.11° C | 25% | 1013 hPa | 0 mm | - | 0 W/m² | - |
| 1777088277 | 16.11° C | 24% | 1013.3 hPa | 0 mm | - | 0 W/m² | - |
| 1777087967 | 16.11° C | 24% | 1013 hPa | 0 mm | - | 0 W/m² | - |
| 1777087666 | 16.11° C | 24% | 1013 hPa | 0 mm | - | 0 W/m² | - |
| 1777087361 | 16.67° C | 24% | 1013.1 hPa | 0 mm | - | 0 W/m² | - |
| 1777087056 | 16.67° C | 23% | 1013.2 hPa | 0 mm | - | 0 W/m² | - |
| 1777086750 | 16.67° C | 23% | 1013 hPa | 0 mm | - | 0 W/m² | - |
* Rain latest hour (hover to see other rain measurements)
** Current wind speed in m/s (hover to see current wind gust speed)